Year,Month,Day,Hour,Minute,Value (Times are PST for temperature in C)
2020,10,26,00,00,3.80
2020,10,26,00,01,3.80
2020,10,26,00,02,3.80
2020,10,26,00,03,3.80
2020,10,26,00,04,3.80
2020,10,26,00,05,3.80
2020,10,26,00,06,3.80
2020,10,26,00,07,3.80
2020,10,26,00,08,3.80
2020,10,26,00,09,3.80
2020,10,26,00,10,3.80
2020,10,26,00,11,3.80
2020,10,26,00,12,3.80
2020,10,26,00,13,3.80
2020,10,26,00,14,3.80
2020,10,26,00,15,3.80
2020,10,26,00,16,3.80
2020,10,26,00,17,3.80
2020,10,26,00,18,3.80
2020,10,26,00,19,3.80
2020,10,26,00,20,3.90
2020,10,26,00,21,3.90
2020,10,26,00,22,3.90
2020,10,26,00,23,3.90
2020,10,26,00,24,3.90
2020,10,26,00,25,4.00
2020,10,26,00,26,4.00
2020,10,26,00,27,4.00
2020,10,26,00,28,4.00
2020,10,26,00,29,4.10
2020,10,26,00,30,4.10
2020,10,26,00,32,4.10
2020,10,26,00,33,4.10
2020,10,26,00,34,4.20
2020,10,26,00,35,4.20
2020,10,26,00,36,4.20
2020,10,26,00,37,4.20
2020,10,26,00,38,4.20
2020,10,26,00,39,4.20
2020,10,26,00,40,4.20
2020,10,26,00,41,4.20
2020,10,26,00,42,4.20
2020,10,26,00,43,4.20
2020,10,26,00,44,4.20
2020,10,26,00,45,4.30
2020,10,26,00,46,4.30
2020,10,26,00,47,4.30
2020,10,26,00,48,4.30
2020,10,26,00,49,4.30
2020,10,26,00,50,4.30
2020,10,26,00,51,4.30
2020,10,26,00,52,4.30
2020,10,26,00,53,4.30
2020,10,26,00,54,4.30
2020,10,26,00,55,4.30
2020,10,26,00,56,4.30
2020,10,26,00,57,4.30
2020,10,26,00,58,4.30
2020,10,26,00,59,4.30
2020,10,26,01,00,4.30
2020,10,26,01,01,4.30
2020,10,26,01,02,4.30
2020,10,26,01,03,4.30
2020,10,26,01,04,4.30
2020,10,26,01,05,4.30
2020,10,26,01,06,4.30
2020,10,26,01,07,4.30
2020,10,26,01,08,4.30
2020,10,26,01,09,4.40
2020,10,26,01,10,4.40
2020,10,26,01,11,4.40
2020,10,26,01,12,4.40
2020,10,26,01,13,4.40
2020,10,26,01,14,4.40
2020,10,26,01,15,4.40
2020,10,26,01,16,4.40
2020,10,26,01,17,4.40
2020,10,26,01,18,4.40
2020,10,26,01,19,4.40
2020,10,26,01,20,4.40
2020,10,26,01,21,4.40
2020,10,26,01,22,4.40
2020,10,26,01,23,4.40
2020,10,26,01,24,4.50
2020,10,26,01,25,4.50
2020,10,26,01,26,4.50
2020,10,26,01,27,4.50
2020,10,26,01,28,4.50
2020,10,26,01,29,4.50
2020,10,26,01,30,4.50
2020,10,26,01,31,4.50
2020,10,26,01,32,4.50
2020,10,26,01,33,4.50
2020,10,26,01,34,4.50
2020,10,26,01,35,4.50
2020,10,26,01,37,4.60
2020,10,26,01,39,4.60
2020,10,26,01,41,4.60
2020,10,26,01,42,4.60
2020,10,26,01,43,4.60
2020,10,26,01,44,4.60
2020,10,26,01,46,4.60
2020,10,26,01,47,4.60
2020,10,26,01,48,4.60
2020,10,26,01,49,4.60
2020,10,26,01,51,4.60
2020,10,26,01,52,4.60
2020,10,26,01,53,4.60
2020,10,26,01,54,4.60
2020,10,26,01,56,4.60
2020,10,26,01,57,4.60
2020,10,26,01,58,4.60
2020,10,26,01,59,4.60
2020,10,26,02,01,4.60
2020,10,26,02,02,4.60
2020,10,26,02,03,4.60
2020,10,26,02,04,4.60
2020,10,26,02,06,4.60
2020,10,26,02,07,4.60
2020,10,26,02,08,4.60
2020,10,26,02,09,4.60
2020,10,26,02,11,4.70
2020,10,26,02,12,4.70
2020,10,26,02,13,4.70
2020,10,26,02,14,4.70
2020,10,26,02,16,4.70
2020,10,26,02,17,4.70
2020,10,26,02,18,4.70
2020,10,26,02,19,4.70
2020,10,26,02,21,4.70
2020,10,26,02,22,4.70
2020,10,26,02,23,4.70
2020,10,26,02,24,4.80
2020,10,26,02,26,4.80
2020,10,26,02,27,4.80
2020,10,26,02,28,4.80
2020,10,26,02,29,4.80
2020,10,26,02,31,4.80
2020,10,26,02,32,4.80
2020,10,26,02,33,4.80
2020,10,26,02,34,4.70
2020,10,26,02,36,4.70
2020,10,26,02,37,4.70
2020,10,26,02,38,4.70
2020,10,26,02,39,4.60
2020,10,26,02,41,4.60
2020,10,26,02,42,4.60
2020,10,26,02,43,4.60
2020,10,26,02,44,4.60
2020,10,26,02,46,4.60
2020,10,26,02,47,4.50
2020,10,26,02,48,4.50
2020,10,26,02,49,4.50
2020,10,26,02,50,4.50
2020,10,26,02,51,4.50
2020,10,26,02,52,4.50
2020,10,26,02,53,4.50
2020,10,26,02,54,4.40
2020,10,26,02,55,4.40
2020,10,26,02,56,4.40
2020,10,26,02,57,4.40
2020,10,26,02,58,4.40
2020,10,26,02,59,4.40
2020,10,26,03,00,4.40
2020,10,26,03,01,4.40
2020,10,26,03,02,4.30
2020,10,26,03,03,4.30
2020,10,26,03,04,4.30
2020,10,26,03,05,4.30
2020,10,26,03,06,4.30
2020,10,26,03,07,4.30
2020,10,26,03,08,4.30
2020,10,26,03,09,4.30
2020,10,26,03,10,4.30
2020,10,26,03,11,4.30
2020,10,26,03,12,4.30
2020,10,26,03,13,4.20
2020,10,26,03,14,4.20
2020,10,26,03,15,4.20
2020,10,26,03,16,4.20
2020,10,26,03,17,4.20
2020,10,26,03,18,4.20
2020,10,26,03,19,4.20
2020,10,26,03,20,4.20
2020,10,26,03,21,4.20
2020,10,26,03,22,4.20
2020,10,26,03,23,4.20
2020,10,26,03,24,4.20
2020,10,26,03,25,4.20
2020,10,26,03,26,4.20
2020,10,26,03,27,4.10
2020,10,26,03,28,4.10
2020,10,26,03,29,4.10
2020,10,26,03,30,4.10
2020,10,26,03,31,4.10
2020,10,26,03,32,4.00
2020,10,26,03,33,4.00
2020,10,26,03,34,4.00
2020,10,26,03,35,4.00
2020,10,26,03,36,4.00
2020,10,26,03,37,4.00
2020,10,26,03,38,3.90
2020,10,26,03,39,3.90
2020,10,26,03,40,3.90
2020,10,26,03,41,3.80
2020,10,26,03,42,3.80
2020,10,26,03,43,3.80
2020,10,26,03,44,3.80
2020,10,26,03,45,3.80
2020,10,26,03,46,3.80
2020,10,26,03,47,3.80
2020,10,26,03,48,3.80
2020,10,26,03,49,3.80
2020,10,26,03,50,3.80
2020,10,26,03,51,3.80
2020,10,26,03,52,3.80
2020,10,26,03,53,3.70
2020,10,26,03,54,3.70
2020,10,26,03,55,3.70
2020,10,26,03,56,3.70
2020,10,26,03,57,3.70
2020,10,26,03,58,3.70
2020,10,26,03,59,3.70
2020,10,26,04,00,3.70
2020,10,26,04,01,3.70
2020,10,26,04,02,3.60
2020,10,26,04,03,3.60
2020,10,26,04,04,3.60
2020,10,26,04,05,3.60
2020,10,26,04,06,3.60
2020,10,26,04,07,3.60
2020,10,26,04,08,3.60
2020,10,26,04,09,3.60
2020,10,26,04,10,3.60
2020,10,26,04,11,3.60
2020,10,26,04,12,3.60
2020,10,26,04,13,3.60
2020,10,26,04,14,3.60
2020,10,26,04,15,3.60
2020,10,26,04,16,3.60
2020,10,26,04,17,3.60
2020,10,26,04,18,3.60
2020,10,26,04,19,3.70
2020,10,26,04,20,3.70
2020,10,26,04,21,3.70
2020,10,26,04,22,3.70
2020,10,26,04,23,3.70
2020,10,26,04,24,3.70
2020,10,26,04,25,3.70
2020,10,26,04,26,3.70
2020,10,26,04,27,3.70
2020,10,26,04,28,3.70
2020,10,26,04,29,3.70
2020,10,26,04,30,3.70
2020,10,26,04,31,3.70
2020,10,26,04,32,3.70
2020,10,26,04,33,3.70
2020,10,26,04,34,3.70
2020,10,26,04,35,3.70
2020,10,26,04,36,3.70
2020,10,26,04,37,3.70
2020,10,26,04,38,3.70
2020,10,26,04,39,3.70
2020,10,26,04,40,3.70
2020,10,26,04,41,3.70
2020,10,26,04,42,3.70
2020,10,26,04,43,3.70
2020,10,26,04,44,3.70
2020,10,26,04,45,3.70
2020,10,26,04,46,3.80
2020,10,26,04,47,3.80
2020,10,26,04,48,3.80
2020,10,26,04,49,3.80
2020,10,26,04,50,3.80
2020,10,26,04,51,3.80
2020,10,26,04,52,3.80
2020,10,26,04,53,3.80
2020,10,26,04,54,3.80
2020,10,26,04,55,3.80
2020,10,26,04,56,3.80
2020,10,26,04,57,3.80
2020,10,26,04,58,3.80
2020,10,26,04,59,3.80
2020,10,26,05,00,3.80
2020,10,26,05,01,3.80
2020,10,26,05,02,3.80
2020,10,26,05,03,3.80
2020,10,26,05,04,3.80
2020,10,26,05,05,3.80
2020,10,26,05,06,3.80
2020,10,26,05,07,3.80
2020,10,26,05,08,3.80
2020,10,26,05,09,3.80
2020,10,26,05,10,3.80
2020,10,26,05,11,3.80
2020,10,26,05,12,3.80
2020,10,26,05,14,3.80
2020,10,26,05,16,3.80
2020,10,26,05,17,3.80
2020,10,26,05,18,3.80
2020,10,26,05,19,3.80
2020,10,26,05,21,3.80
2020,10,26,05,22,3.80
2020,10,26,05,23,3.80
2020,10,26,05,24,3.80
2020,10,26,05,26,3.80
2020,10,26,05,27,3.80
2020,10,26,05,28,3.80
2020,10,26,05,29,3.80
2020,10,26,05,31,3.80
2020,10,26,05,32,3.90
2020,10,26,05,33,3.90
2020,10,26,05,34,3.90
2020,10,26,05,36,3.90
2020,10,26,05,37,3.90
2020,10,26,05,38,3.90
2020,10,26,05,39,3.90
2020,10,26,05,41,3.90
2020,10,26,05,42,3.90
2020,10,26,05,43,3.90
2020,10,26,05,44,3.90
2020,10,26,05,46,3.90
2020,10,26,05,47,3.90
2020,10,26,05,48,3.90
2020,10,26,05,49,3.90
2020,10,26,05,51,3.90
2020,10,26,05,52,3.90
2020,10,26,05,53,3.90
2020,10,26,05,54,3.90
2020,10,26,05,56,3.90
2020,10,26,05,57,3.90
2020,10,26,05,58,3.90
2020,10,26,05,59,3.90
2020,10,26,06,01,3.90
2020,10,26,06,02,3.90
2020,10,26,06,03,3.90
2020,10,26,06,04,3.90
2020,10,26,06,06,3.90
2020,10,26,06,07,3.90
2020,10,26,06,08,3.90
2020,10,26,06,09,3.90
2020,10,26,06,11,3.90
2020,10,26,06,12,3.90
2020,10,26,06,13,3.90
2020,10,26,06,14,3.90
2020,10,26,06,15,3.90
2020,10,26,06,16,3.90
2020,10,26,06,17,4.00
2020,10,26,06,18,4.00
2020,10,26,06,19,4.00
2020,10,26,06,20,4.00
2020,10,26,06,21,4.00
2020,10,26,06,22,4.00
2020,10,26,06,23,4.00
2020,10,26,06,24,4.00
2020,10,26,06,25,4.00
2020,10,26,06,26,4.00
2020,10,26,06,27,4.00
2020,10,26,06,28,4.00
2020,10,26,06,29,4.00
2020,10,26,06,30,4.00
2020,10,26,06,32,4.00
2020,10,26,06,33,4.00
2020,10,26,06,34,4.00
2020,10,26,06,36,4.00
2020,10,26,06,37,4.00
2020,10,26,06,38,4.00
2020,10,26,06,39,4.00
2020,10,26,06,40,4.00
2020,10,26,06,41,4.00
2020,10,26,06,42,4.00
2020,10,26,06,43,4.00
2020,10,26,06,44,4.00
2020,10,26,06,45,4.00
2020,10,26,06,46,4.00
2020,10,26,06,47,4.00
2020,10,26,06,48,4.00
2020,10,26,06,49,4.00
2020,10,26,06,50,4.00
2020,10,26,06,51,4.00
2020,10,26,06,52,4.00
2020,10,26,06,53,4.00
2020,10,26,06,54,4.10
2020,10,26,06,55,4.10
2020,10,26,06,56,4.10
2020,10,26,06,57,4.10
2020,10,26,06,58,4.10
2020,10,26,06,59,4.10
2020,10,26,07,00,4.10
2020,10,26,07,01,4.10
2020,10,26,07,02,4.10
2020,10,26,07,03,4.10
2020,10,26,07,04,4.20
2020,10,26,07,05,4.20
2020,10,26,07,06,4.20
2020,10,26,07,07,4.20
2020,10,26,07,08,4.20
2020,10,26,07,09,4.20
2020,10,26,07,10,4.20
2020,10,26,07,11,4.20
2020,10,26,07,12,4.20
2020,10,26,07,13,4.20
2020,10,26,07,14,4.20
2020,10,26,07,15,4.20
2020,10,26,07,16,4.20
2020,10,26,07,17,4.20
2020,10,26,07,18,4.20
2020,10,26,07,19,4.20
2020,10,26,07,20,4.20
2020,10,26,07,21,4.20
2020,10,26,07,22,4.20
2020,10,26,07,23,4.20
2020,10,26,07,24,4.20
2020,10,26,07,25,4.20
2020,10,26,07,26,4.20
2020,10,26,07,27,4.20
2020,10,26,07,28,4.20
2020,10,26,07,29,4.20
2020,10,26,07,30,4.20
2020,10,26,07,31,4.20
2020,10,26,07,32,4.20
2020,10,26,07,33,4.20
2020,10,26,07,34,4.20
2020,10,26,07,35,4.20
2020,10,26,07,36,4.20
2020,10,26,07,37,4.20
2020,10,26,07,38,4.20
2020,10,26,07,39,4.20
2020,10,26,07,40,4.20
2020,10,26,07,41,4.30
2020,10,26,08,29,4.70
2020,10,26,08,30,4.70
2020,10,26,08,31,4.70
2020,10,26,08,32,4.70
2020,10,26,08,33,4.80
2020,10,26,08,34,4.80
2020,10,26,08,35,4.80
2020,10,26,08,36,4.80
2020,10,26,08,37,4.80
2020,10,26,08,38,4.80
2020,10,26,08,39,4.90
2020,10,26,08,40,4.90
2020,10,26,08,41,4.90
2020,10,26,08,42,4.90
2020,10,26,08,43,4.90
2020,10,26,08,44,4.90
2020,10,26,08,45,4.90
2020,10,26,08,46,4.90
2020,10,26,08,47,4.90
2020,10,26,08,48,4.90
2020,10,26,08,49,4.90
2020,10,26,08,50,4.90
2020,10,26,08,51,4.90
2020,10,26,08,52,4.90
2020,10,26,08,53,4.90
2020,10,26,08,54,4.90
2020,10,26,08,56,4.90
2020,10,26,08,57,4.90
2020,10,26,08,58,4.90
2020,10,26,08,59,4.90
2020,10,26,09,01,4.90
2020,10,26,09,02,5.10
2020,10,26,09,03,5.10
2020,10,26,09,04,5.10
2020,10,26,09,06,5.10
2020,10,26,09,07,5.10
2020,10,26,09,08,5.10
2020,10,26,09,09,5.10
2020,10,26,09,11,5.10
2020,10,26,09,12,5.10
2020,10,26,09,13,5.10
2020,10,26,09,14,5.10
2020,10,26,09,16,5.10
2020,10,26,09,17,5.10
2020,10,26,09,18,5.10
2020,10,26,09,19,5.10
2020,10,26,09,21,5.10
2020,10,26,09,22,5.10
2020,10,26,09,23,5.10
2020,10,26,09,24,5.10
2020,10,26,09,26,5.10
2020,10,26,09,27,5.10
2020,10,26,09,28,5.10
2020,10,26,09,29,5.10
2020,10,26,09,31,5.10
2020,10,26,09,32,5.10
2020,10,26,09,33,5.20
2020,10,26,09,34,5.20
2020,10,26,09,36,5.20
2020,10,26,09,37,5.20
2020,10,26,09,38,5.20
2020,10,26,09,39,5.20
2020,10,26,09,41,5.30
2020,10,26,09,42,5.30
2020,10,26,09,43,5.30
2020,10,26,09,44,5.30
2020,10,26,09,46,5.30
2020,10,26,09,47,5.30
2020,10,26,09,48,5.30
2020,10,26,09,49,5.30
2020,10,26,09,51,5.30
2020,10,26,09,52,5.30
2020,10,26,09,53,5.30
2020,10,26,09,54,5.30
2020,10,26,09,56,5.30
2020,10,26,09,57,5.30
2020,10,26,09,58,5.30
2020,10,26,09,59,5.30
2020,10,26,10,01,5.40
2020,10,26,10,02,5.40
2020,10,26,10,03,5.40
2020,10,26,10,04,5.40
2020,10,26,10,06,5.50
2020,10,26,10,07,5.50
2020,10,26,10,08,5.50
2020,10,26,10,09,5.60
2020,10,26,10,10,5.60
2020,10,26,10,11,5.60
2020,10,26,10,12,5.60
2020,10,26,10,13,5.60
2020,10,26,10,14,5.70
2020,10,26,10,15,5.70
2020,10,26,10,16,5.70
2020,10,26,10,17,5.70
2020,10,26,10,18,5.70
2020,10,26,10,19,5.70
2020,10,26,10,20,5.70
2020,10,26,10,21,5.70
2020,10,26,10,22,5.70
2020,10,26,10,23,5.70
2020,10,26,10,24,5.70
2020,10,26,10,25,5.80
2020,10,26,10,26,5.80
2020,10,26,10,27,5.80
2020,10,26,10,28,5.90
2020,10,26,10,29,5.90
2020,10,26,10,30,5.90
2020,10,26,10,31,5.90
2020,10,26,10,32,6.00
2020,10,26,10,33,6.00
2020,10,26,10,34,6.00
2020,10,26,10,35,6.10
2020,10,26,10,36,6.10
2020,10,26,10,37,6.10
2020,10,26,10,38,6.20
2020,10,26,10,39,6.20
2020,10,26,10,40,6.20
2020,10,26,10,41,6.20
2020,10,26,10,42,6.20
2020,10,26,10,43,6.20
2020,10,26,10,44,6.20
2020,10,26,10,45,6.20
2020,10,26,10,46,6.20
2020,10,26,10,47,6.20
2020,10,26,10,48,6.20
2020,10,26,10,49,6.20
2020,10,26,10,50,6.20
2020,10,26,10,51,6.20
2020,10,26,10,52,6.20
2020,10,26,10,53,6.20
2020,10,26,10,54,6.20
2020,10,26,10,55,6.20
2020,10,26,10,56,6.20
2020,10,26,10,57,6.20
2020,10,26,10,58,6.20
2020,10,26,10,59,6.20
2020,10,26,11,00,6.20
2020,10,26,11,01,6.20
2020,10,26,11,02,6.20
2020,10,26,11,03,6.20
2020,10,26,11,04,6.20
2020,10,26,11,05,6.30
2020,10,26,11,06,6.30
2020,10,26,11,07,6.30
2020,10,26,11,08,6.30
2020,10,26,11,09,6.30
2020,10,26,11,10,6.30
2020,10,26,11,11,6.30
2020,10,26,11,12,6.30
2020,10,26,11,13,6.30
2020,10,26,11,14,6.30
2020,10,26,11,15,6.30
2020,10,26,11,16,6.30
2020,10,26,11,17,6.30
2020,10,26,11,18,6.30
2020,10,26,11,19,6.40
2020,10,26,11,20,6.40
2020,10,26,11,21,6.40
2020,10,26,11,22,6.40
2020,10,26,11,23,6.40
2020,10,26,11,24,6.40
2020,10,26,11,25,6.40
2020,10,26,11,26,6.40
2020,10,26,11,27,6.40
2020,10,26,11,28,6.40
2020,10,26,11,29,6.40
2020,10,26,11,30,6.60
2020,10,26,11,31,6.60
2020,10,26,11,32,6.60
2020,10,26,11,33,6.60
2020,10,26,11,34,6.60
2020,10,26,11,35,6.60
2020,10,26,11,36,6.60
2020,10,26,11,37,6.60
2020,10,26,11,38,6.60
2020,10,26,11,39,6.60
2020,10,26,11,40,6.60
2020,10,26,11,41,6.60
2020,10,26,11,42,6.60
2020,10,26,11,43,6.60
2020,10,26,11,44,6.60
2020,10,26,11,45,6.70
2020,10,26,11,46,6.70
2020,10,26,11,47,6.70
2020,10,26,11,48,6.70
2020,10,26,11,49,6.70
2020,10,26,11,50,6.70
2020,10,26,11,51,6.80
2020,10,26,11,52,6.80
2020,10,26,11,53,6.80
2020,10,26,11,54,6.80
2020,10,26,11,55,6.80
2020,10,26,11,56,6.90
2020,10,26,11,57,6.90
2020,10,26,11,58,6.90
2020,10,26,11,59,6.90
2020,10,26,12,00,7.00
2020,10,26,12,01,7.00
2020,10,26,12,02,7.00
2020,10,26,12,03,7.00
2020,10,26,12,04,7.00
2020,10,26,12,05,7.10
2020,10,26,12,06,7.10
2020,10,26,12,07,7.10
2020,10,26,12,08,7.10
2020,10,26,12,09,7.20
2020,10,26,12,10,7.20
2020,10,26,12,11,7.20
2020,10,26,12,12,7.20
2020,10,26,12,13,7.20
2020,10,26,12,14,7.20
2020,10,26,12,15,7.30
2020,10,26,12,16,7.30
2020,10,26,12,17,7.30
2020,10,26,12,18,7.30
2020,10,26,12,19,7.30
2020,10,26,12,20,7.30
2020,10,26,12,21,7.30
2020,10,26,12,22,7.30
2020,10,26,12,23,7.40
2020,10,26,12,24,7.40
2020,10,26,12,25,7.40
2020,10,26,12,26,7.40
2020,10,26,12,27,7.40
2020,10,26,12,28,7.40
2020,10,26,12,29,7.40
2020,10,26,12,30,7.40
2020,10,26,12,32,7.50
2020,10,26,12,33,7.50
2020,10,26,12,34,7.50
2020,10,26,12,36,7.50
2020,10,26,12,37,7.60
2020,10,26,12,38,7.60
2020,10,26,12,39,7.60
2020,10,26,12,41,7.60
2020,10,26,12,42,7.60
2020,10,26,12,43,7.60
2020,10,26,12,44,7.60
2020,10,26,12,46,7.70
2020,10,26,12,47,7.70
2020,10,26,12,48,7.70
2020,10,26,12,49,7.70
2020,10,26,12,51,7.70
2020,10,26,12,52,7.70
2020,10,26,12,53,7.70
2020,10,26,12,54,7.70
2020,10,26,12,56,7.70
2020,10,26,12,57,7.70
2020,10,26,12,58,7.70
2020,10,26,12,59,7.70
2020,10,26,13,01,7.70
2020,10,26,13,02,7.70
2020,10,26,13,03,7.70
2020,10,26,13,04,7.70
2020,10,26,13,06,7.70
2020,10,26,13,07,7.70
2020,10,26,13,08,7.70
2020,10,26,13,09,7.60
2020,10,26,13,11,7.60
2020,10,26,13,12,7.60
2020,10,26,13,13,7.60
2020,10,26,13,14,7.60
2020,10,26,13,16,7.60
2020,10,26,13,17,7.60
2020,10,26,13,18,7.60
2020,10,26,13,19,7.60
2020,10,26,13,21,7.60
2020,10,26,13,22,7.60
2020,10,26,13,23,7.70
2020,10,26,13,24,7.60
2020,10,26,13,26,7.60
2020,10,26,13,27,7.60
2020,10,26,13,28,7.60
2020,10,26,13,29,7.60
2020,10,26,13,31,7.70
2020,10,26,13,32,7.70
2020,10,26,13,33,7.70
2020,10,26,13,34,7.70
2020,10,26,13,36,7.80
2020,10,26,13,37,7.80
2020,10,26,13,38,7.80
2020,10,26,13,39,7.80
2020,10,26,13,40,7.80
2020,10,26,13,41,7.70
2020,10,26,13,42,7.70
2020,10,26,13,43,7.80
2020,10,26,13,44,7.80
2020,10,26,13,45,7.80
2020,10,26,13,46,7.80
2020,10,26,13,47,7.80
2020,10,26,13,48,7.80
2020,10,26,13,49,7.80
2020,10,26,13,50,7.80
2020,10,26,13,51,7.80
2020,10,26,13,52,7.70
2020,10,26,13,53,7.70
2020,10,26,13,54,7.70
2020,10,26,13,55,7.70
2020,10,26,13,56,7.80
2020,10,26,13,57,7.80
2020,10,26,13,58,7.80
2020,10,26,13,59,7.80
2020,10,26,14,00,7.80
2020,10,26,14,01,7.80
2020,10,26,14,02,7.80
2020,10,26,14,03,7.80
2020,10,26,14,04,7.80
2020,10,26,14,05,7.80
2020,10,26,14,06,7.80
2020,10,26,14,07,7.80
2020,10,26,14,08,7.80
2020,10,26,14,09,7.90
2020,10,26,14,10,7.90
2020,10,26,14,11,7.90
2020,10,26,14,12,7.90
2020,10,26,14,13,7.90
2020,10,26,14,14,8.00
2020,10,26,14,15,8.00
2020,10,26,14,16,8.00
2020,10,26,14,17,8.00
2020,10,26,14,18,8.00
2020,10,26,14,19,8.10
2020,10,26,14,20,8.10
2020,10,26,14,21,8.10
2020,10,26,14,22,8.10
2020,10,26,14,23,8.20
2020,10,26,14,24,8.20
2020,10,26,14,25,8.20
2020,10,26,14,26,8.20
2020,10,26,14,27,8.20
2020,10,26,14,28,8.20
2020,10,26,14,29,8.20
2020,10,26,14,30,8.20
2020,10,26,14,31,8.20
2020,10,26,14,32,8.20
2020,10,26,14,33,8.20
2020,10,26,14,34,8.20
2020,10,26,14,35,8.20
2020,10,26,14,36,8.20
2020,10,26,14,37,8.20
2020,10,26,14,38,8.20
2020,10,26,14,39,8.20
2020,10,26,14,40,8.20
2020,10,26,14,41,8.30
2020,10,26,14,42,8.30
2020,10,26,14,43,8.20
2020,10,26,14,44,8.20
2020,10,26,14,45,8.20
2020,10,26,14,46,8.30
2020,10,26,14,47,8.30
2020,10,26,14,48,8.30
2020,10,26,14,49,8.30
2020,10,26,14,50,8.30
2020,10,26,14,51,8.30
2020,10,26,14,52,8.30
2020,10,26,14,53,8.30
2020,10,26,14,54,8.30
2020,10,26,14,55,8.30
2020,10,26,14,56,8.30
2020,10,26,14,57,8.30
2020,10,26,14,58,8.30
2020,10,26,14,59,8.30
2020,10,26,15,00,8.30
2020,10,26,15,01,8.30
2020,10,26,15,02,8.30
2020,10,26,15,03,8.30
2020,10,26,15,04,8.30
2020,10,26,15,05,8.30
2020,10,26,15,06,8.30
2020,10,26,15,07,8.40
2020,10,26,15,08,8.40
2020,10,26,15,09,8.40
2020,10,26,15,10,8.40
2020,10,26,15,11,8.40
2020,10,26,15,12,8.40
2020,10,26,15,13,8.40
2020,10,26,15,14,8.40
2020,10,26,15,15,8.40
2020,10,26,15,16,8.40
2020,10,26,15,17,8.40
2020,10,26,15,18,8.40
2020,10,26,15,19,8.40
2020,10,26,15,20,8.40
2020,10,26,15,21,8.40
2020,10,26,15,22,8.30
2020,10,26,15,23,8.30
2020,10,26,15,24,8.30
2020,10,26,15,25,8.30
2020,10,26,15,26,8.30
2020,10,26,15,27,8.30
2020,10,26,15,28,8.30
2020,10,26,15,29,8.30
2020,10,26,15,30,8.30
2020,10,26,15,31,8.30
2020,10,26,15,32,8.30
2020,10,26,15,33,8.30
2020,10,26,15,34,8.30
2020,10,26,15,35,8.20
2020,10,26,15,36,8.20
2020,10,26,15,37,8.20
2020,10,26,15,38,8.20
2020,10,26,15,39,8.20
2020,10,26,15,40,8.20
2020,10,26,15,41,8.20
2020,10,26,15,42,8.20
2020,10,26,15,43,8.20
2020,10,26,15,44,8.20
2020,10,26,15,45,8.20
2020,10,26,15,46,8.20
2020,10,26,15,47,8.20
2020,10,26,15,48,8.20
2020,10,26,15,49,8.20
2020,10,26,15,50,8.20
2020,10,26,15,51,8.20
2020,10,26,15,52,8.10
2020,10,26,15,53,8.10
2020,10,26,15,54,8.10
2020,10,26,15,55,8.10
2020,10,26,15,57,8.10
2020,10,26,15,58,8.00
2020,10,26,15,59,8.00
2020,10,26,16,01,8.00
2020,10,26,16,02,8.00
2020,10,26,16,03,8.00
2020,10,26,16,04,8.00
2020,10,26,16,06,7.90
2020,10,26,16,07,7.90
2020,10,26,16,08,7.90
2020,10,26,16,09,7.90
2020,10,26,16,11,7.90
2020,10,26,16,12,7.90
2020,10,26,16,13,7.90
2020,10,26,16,14,7.80
2020,10,26,16,16,7.80
2020,10,26,16,17,7.80
2020,10,26,16,18,7.80
2020,10,26,16,19,7.80
2020,10,26,16,21,7.70
2020,10,26,16,22,7.70
2020,10,26,16,23,7.70
2020,10,26,16,24,7.80
2020,10,26,16,26,7.80
2020,10,26,16,27,7.80
2020,10,26,16,28,7.80
2020,10,26,16,29,7.80
2020,10,26,16,31,7.80
2020,10,26,16,32,7.80
2020,10,26,16,33,7.80
2020,10,26,16,34,7.80
2020,10,26,16,36,7.80
2020,10,26,16,37,7.80
2020,10,26,16,38,7.80
2020,10,26,16,39,7.80
2020,10,26,16,41,7.80
2020,10,26,16,42,7.70
2020,10,26,16,43,7.70
2020,10,26,16,44,7.70
2020,10,26,16,46,7.70
2020,10,26,16,47,7.70
2020,10,26,16,48,7.80
2020,10,26,16,49,7.80
2020,10,26,16,51,7.80
2020,10,26,16,52,7.80
2020,10,26,16,53,7.80
2020,10,26,16,54,7.80
2020,10,26,16,56,7.80
2020,10,26,16,57,7.80
2020,10,26,16,58,7.80
2020,10,26,16,59,7.80
2020,10,26,17,01,7.80
2020,10,26,17,02,7.80
2020,10,26,17,03,7.80
2020,10,26,17,04,7.80
2020,10,26,17,06,7.80
2020,10,26,17,07,7.80
2020,10,26,17,08,7.80
2020,10,26,17,09,7.80
2020,10,26,17,11,7.80
2020,10,26,17,12,7.80
2020,10,26,17,13,7.80
2020,10,26,17,14,7.80
2020,10,26,17,15,7.80
2020,10,26,17,16,7.80
2020,10,26,17,17,7.80
2020,10,26,17,18,7.80
2020,10,26,17,19,7.80
2020,10,26,17,20,7.80
2020,10,26,17,21,7.80
2020,10,26,17,22,7.80
2020,10,26,17,23,7.80
2020,10,26,17,24,7.80
2020,10,26,17,25,7.80
2020,10,26,17,26,7.80
2020,10,26,17,27,7.80
2020,10,26,17,28,7.80
2020,10,26,17,29,7.80
2020,10,26,17,30,7.80
2020,10,26,17,31,7.80
2020,10,26,17,32,7.70
2020,10,26,17,33,7.70
2020,10,26,17,34,7.70
2020,10,26,17,35,7.60
2020,10,26,17,36,7.60
2020,10,26,17,37,7.60
2020,10,26,17,38,7.60
2020,10,26,17,39,7.60
2020,10,26,17,40,7.50
2020,10,26,17,41,7.50
2020,10,26,17,42,7.50
2020,10,26,17,43,7.50
2020,10,26,17,44,7.40
2020,10,26,17,45,7.40
2020,10,26,17,46,7.40
2020,10,26,17,47,7.30
2020,10,26,17,48,7.30
2020,10,26,17,49,7.30
2020,10,26,17,50,7.30
2020,10,26,17,51,7.30
2020,10,26,17,52,7.20
2020,10,26,17,53,7.20
2020,10,26,17,54,7.20
2020,10,26,17,55,7.10
2020,10,26,17,56,7.10
2020,10,26,17,57,7.00
2020,10,26,17,58,7.00
2020,10,26,17,59,7.00
2020,10,26,18,00,6.90
2020,10,26,18,01,6.90
2020,10,26,18,02,6.90
2020,10,26,18,03,6.80
2020,10,26,18,04,6.80
2020,10,26,18,05,6.80
2020,10,26,18,06,6.80
2020,10,26,18,07,6.70
2020,10,26,18,08,6.70
2020,10,26,18,09,6.70
2020,10,26,18,10,6.60
2020,10,26,18,11,6.60
2020,10,26,18,12,6.60
2020,10,26,18,13,6.60
2020,10,26,18,14,6.60
2020,10,26,18,15,6.60
2020,10,26,18,16,6.40
2020,10,26,18,17,6.40
2020,10,26,18,18,6.40
2020,10,26,18,19,6.40
2020,10,26,18,20,6.40
2020,10,26,18,21,6.40
2020,10,26,18,22,6.30
2020,10,26,18,23,6.30
2020,10,26,18,24,6.30
2020,10,26,18,25,6.20
2020,10,26,18,26,6.20
2020,10,26,18,27,6.20
2020,10,26,18,28,6.20
2020,10,26,18,29,6.20
2020,10,26,18,30,6.10
2020,10,26,18,32,6.10
2020,10,26,18,33,6.00
2020,10,26,18,34,6.00
2020,10,26,18,35,6.00
2020,10,26,18,36,6.00
2020,10,26,18,37,5.90
2020,10,26,18,38,5.90
2020,10,26,18,39,5.90
2020,10,26,18,40,5.80
2020,10,26,18,41,5.80
2020,10,26,18,42,5.80
2020,10,26,18,43,5.80
2020,10,26,18,44,5.70
2020,10,26,18,45,5.70
2020,10,26,18,46,5.70
2020,10,26,18,47,5.70
2020,10,26,18,48,5.70
2020,10,26,18,49,5.70
2020,10,26,18,50,5.70
2020,10,26,18,51,5.70
2020,10,26,18,52,5.60
2020,10,26,18,53,5.60
2020,10,26,18,54,5.60
2020,10,26,18,55,5.50
2020,10,26,18,56,5.50
2020,10,26,18,57,5.50
2020,10,26,18,58,5.40
2020,10,26,18,59,5.40
2020,10,26,19,00,5.40
2020,10,26,19,01,5.30
2020,10,26,19,02,5.30
2020,10,26,19,03,5.30
2020,10,26,19,04,5.30
2020,10,26,19,05,5.30
2020,10,26,19,06,5.30
2020,10,26,19,07,5.30
2020,10,26,19,08,5.30
2020,10,26,19,09,5.20
2020,10,26,19,10,5.20
2020,10,26,19,11,5.20
2020,10,26,19,12,5.20
2020,10,26,19,13,5.10
2020,10,26,19,14,5.10
2020,10,26,19,15,5.10
2020,10,26,19,16,5.10
2020,10,26,19,17,5.10
2020,10,26,19,18,5.10
2020,10,26,19,19,5.10
2020,10,26,19,20,5.10
2020,10,26,19,21,5.10
2020,10,26,19,22,5.10
2020,10,26,19,23,4.90
2020,10,26,19,24,4.90
2020,10,26,19,25,4.90
2020,10,26,19,26,4.90
2020,10,26,19,27,4.90
2020,10,26,19,28,4.90
2020,10,26,19,29,4.90
2020,10,26,19,30,4.90
2020,10,26,19,31,4.90
2020,10,26,19,32,4.90
2020,10,26,19,33,4.90
2020,10,26,19,34,4.90
2020,10,26,19,35,4.90
2020,10,26,19,37,4.90
2020,10,26,19,38,4.90
2020,10,26,19,39,4.90
2020,10,26,19,41,4.90
2020,10,26,19,42,4.90
2020,10,26,19,43,4.90
2020,10,26,19,44,4.90
2020,10,26,19,46,4.90
2020,10,26,19,47,4.90
2020,10,26,19,48,4.90
2020,10,26,19,49,4.90
2020,10,26,19,51,4.90
2020,10,26,19,52,4.90
2020,10,26,19,53,4.80
2020,10,26,19,54,4.80
2020,10,26,19,56,4.80
2020,10,26,19,57,4.80
2020,10,26,19,58,4.80
2020,10,26,19,59,4.80
2020,10,26,20,01,4.80
2020,10,26,20,02,4.80
2020,10,26,20,03,4.80
2020,10,26,20,04,4.80
2020,10,26,20,06,4.80
2020,10,26,20,07,4.80
2020,10,26,20,08,4.80
2020,10,26,20,09,4.80
2020,10,26,20,10,4.80
2020,10,26,20,11,4.70
2020,10,26,20,12,4.70
2020,10,26,20,13,4.70
2020,10,26,20,14,4.70
2020,10,26,20,15,4.70
2020,10,26,20,16,4.70
2020,10,26,20,17,4.70
2020,10,26,20,18,4.70